Вернуться в каталог

FENGYUN 1C DEB

АктивенSSO
NORAD 30241·DEBRIS·🇨🇳 China

Запущен May 10, 1999 с Taiyuan Satellite Launch Center

Loading…

Ближайшие Пролёты (ближайшие 24 часа)

TLE

СвежийSource: Space-Track

Эпоха: Sep 14, 2026, 21:00 UTC

1 30241U 99025XA  26257.87556265  .00000232  00000-0  14333-3 0  9995
2 30241  99.1871  40.8572 0146022  29.8565 122.1768 14.09816933  8035

Отслеживайте FENGYUN 1C DEB в реальном времени с AllMySat

Download on the App Store